Regional Weather Roundup
Issued by NWS

Home | Current Version | Previous Version | Text Only | Print | Product List | Glossary Off
Versions: 1 2 3 4 5 6 7 8 9 10 11 12 13 14 15 16 17 18 19 20 21 22 23 24 25 26 27 28 29 30 31 32 33 34 35 36 37 38 39 40 41 42 43 44 45 46 47 48 49 50

000
ASUS43 KMPX 061810
RWRMN
WEATHER ROUNDUP FOR MINNESOTA
NATIONAL WEATHER SERVICE TWIN CITIES/CHANHASSEN MN
1200 PM CST FRI MAR 06 2015


NOTE: "FAIR" INDICATES FEW OR NO CLOUDS BELOW 12,000 FEET WITH NO
SIGNIFICANT WEATHER AND/OR OBSTRUCTIONS TO VISIBILITY. N/A MEANS
CURRENT SKY AND/OR WEATHER CONDITIONS ARE NOT AVAILABLE.

MNZ060>063-068>070-061900-
   Twin Cities Metro

CITY           SKY/WX    TMP DP  RH WIND       PRES   REMARKS
TWIN CITIES    FAIR      32  15  49 SW7       30.05F WCI  26
6HR MIN TEMP:  10; 6HR MAX TEMP:  33;

ST PAUL        FAIR      32  14  47 W7        30.07S WCI  26
CRYSTAL        FAIR      31  16  54 W8        30.04F WCI  23
BLAINE         SUNNY     32  16  51 W7        30.04S WCI  26
LAKEVILLE      FAIR      30  18  59 W8        30.05S WCI  23
EDEN PRAIRIE   FAIR      34  16  47 W13G18    30.04F WCI  25
6HR MIN TEMP:  14; 6HR MAX TEMP:  34;

SOUTH ST PAUL  FAIR      33  15  47 W7        30.05F WCI  27
LAKE ELMO      FAIR      32  18  55 W7        30.05F WCI  26
$$
MNZ001>005-007-008-013>017-022>024-027-028-061900-
   Northwest Minnesota

CITY           SKY/WX    TMP DP  RH WIND       PRES   REMARKS
BEMIDJI        FAIR      26  11  53 NW18G26   30.02S WCI  13
HALLOCK        FAIR      28  19  69 W8        30.04S WCI  20
ROSEAU         FAIR      27  16  63 W9        30.01S WCI  17
WARROAD        FAIR      25  14  63 SW10      29.99S WCI  15
THIEF RVR FALL FAIR      25  14  63 W7        30.06R WCI  17
CROOKSTON      FAIR      28  16  59 W6        30.08S WCI  22
FOSSTON        FAIR      27  12  54 W9        30.06S WCI  17
DETROIT LAKES  FAIR      28  18  64 W8        30.07S WCI  20
MOORHEAD       FAIR      32  16  51 NW10      30.10S WCI  24
PARK RAPIDS    FAIR      28  11  48 NW20      30.02S WCI  15
MAHNOMEN       FAIR      26  15  63 NW8       30.06F WCI  18
$$
MNZ006-009>011-018-025>026-061900-
   North Central Minnesota

CITY           SKY/WX    TMP DP  RH WIND       PRES   REMARKS
BAUDETTE       FAIR      25  11  55 W12       29.97S WCI  14
FLAG ISLAND    FAIR      27  10  50 NW15G21   29.95F WCI  15
INTL FALLS     FAIR      25   8  48 NW17      29.96R WCI  12
6HR MIN TEMP:   9; 6HR MAX TEMP:  25;

WASKISH        FAIR      28  14  54 SW8       30.00F WCI  20
BIG FORK       FAIR      30   9  40 W8G16     29.97S WCI  23
LONGVILLE      FAIR      28   9  43 W13       30.01F WCI  18
GRAND RAPIDS   FAIR      27  10  50 NW12G18   29.98R WCI  16
CRANE LAKE     FAIR      25   7  46 NW9       29.96S WCI  15
ORR            FAIR      25   7  46 NW9       29.93R WCI  15
COOK           FAIR      27   9  46 NW10G16   29.95R WCI  17
WALKER         FAIR      28  10  47 W14G21    30.01S WCI  17
$$
MNZ012-019>021-037-061900-
   Northeast Minnesota

CITY           SKY/WX    TMP DP  RH WIND       PRES   REMARKS
DULUTH         FAIR      27  11  51 W17       29.93S WCI  14
6HR MIN TEMP:  10; 6HR MAX TEMP:  27;

ELY            FAIR      27   9  46 NW10G21   29.90S WCI  17
HIBBING        FAIR      26  11  52 NW18      29.95R WCI  13
EVELETH        FAIR      27  10  50 NW9G21    29.95R WCI  17
DULUTH HARBOR  FAIR      28  14  54 SW8       29.99S WCI  20
TWO HARBORS    FAIR      34  16  47 W12G18    29.91S WCI  25
SILVER BAY     FAIR      34  10  37 W8        29.89S WCI  27
GRAND MARAIS     N/A     33  15  47 SW10      29.88F WCI  25
G MARAIS ARPRT FAIR      25   5  42 W6G18     29.82S WCI  18
$$
MNZ029>031-032-039>041-046>048-054>057-064-061900-
   West Central Minnesota

CITY           SKY/WX    TMP DP  RH WIND       PRES   REMARKS
FERGUS FALLS   FAIR      27  12  54 N8        30.12S WCI  18
WHEATON        FAIR      27  16  63 W8        30.14S WCI  18
MORRIS         FAIR      28  18  64 NW14      30.10R WCI  17
ALEXANDRIA     FAIR      27  13  55 NW13      30.07R WCI  16
ELBOW LAKE     FAIR      26  16  66 NW9       30.09R WCI  17
WADENA         FAIR      27  12  54 W13       30.05S WCI  16
GLENWOOD       FAIR      27  16  63 W12       30.08R WCI  16
APPLETON       FAIR      30  18  59 NW13      30.12S WCI  20
BENSON         FAIR      30  18  59 N15       30.10S WCI  19
ORTONVILLE     FAIR      30  16  55 NW12G17   30.11F WCI  21
MADISON        FAIR      32  19  59 NW12      30.12R WCI  23
WILLMAR        FAIR      30  16  55 NW18      30.10R WCI  18
$$
MNZ033>034-036-042>043-049>051-058-059-061900-
   Central Minnesota

CITY           SKY/WX    TMP DP  RH WIND       PRES   REMARKS
ST CLOUD       FAIR      30  15  53 NW12      30.04S WCI  20
6HR MIN TEMP:  13; 6HR MAX TEMP:  30;

SAUK CENTRE    FAIR      28  14  57 NW13      30.06S WCI  17
PAYNESVILLE    FAIR      28  15  59 W15       30.07R WCI  16
AITKIN         FAIR      34  10  37 W8        29.99S WCI  27
PINE RIVER     FAIR      28  12  50 W7        30.05S WCI  21
BRAINERD       FAIR      29  11  47 NW13      30.02S WCI  19
STAPLES        FAIR      28  12  50 NW10      30.04S WCI  19
LONG PRAIRIE   FAIR      28  14  54 NW10      30.05S WCI  19
LITTLE FALLS   FAIR      30  12  47 NW7       30.05R WCI  23
LITCHFIELD     FAIR      34  18  51 NW10G17   30.06S WCI  26
BUFFALO        FAIR      32  18  55 W7        30.06S WCI  26
MAPLE LAKE     FAIR      32  19  58 NW9       30.06S WCI  24
$$
MNZ037-044-045-052-053-061900-
   East Central Minnesota

CITY           SKY/WX    TMP DP  RH WIND       PRES   REMARKS
PRINCETON      FAIR      30  16  55 W12       30.05R WCI  21
MORA           FAIR      32  14  47 NW7       30.04R WCI  26
CAMBRIDGE      FAIR      28  16  59 W8        30.02S WCI  20
RUSH CITY      FAIR      29  13  50 W6        30.04S WCI  23
MOOSE LAKE     FAIR      30  10  43 W8        29.98S WCI  23
HINCKLEY         N/A     30  14  51 SW6       30.01S WCI  24
CLOQUET        FAIR      28  10  47 W13G20    29.96R WCI  18
MCGREGOR       FAIR      30  14  51 NW13      29.99F WCI  20
$$
MNZ071>073-080-081-089-090-097-098-061900-
   Southwest Minnesota

CITY           SKY/WX    TMP DP  RH WIND       PRES   REMARKS
MONTEVIDEO     FAIR      34  19  55 N14       30.12R WCI  24
GRANITE FALLS  FAIR      32  20  61 NW15      30.12S WCI  22
CANBY          FAIR      32  19  58 NW13      30.13R WCI  23
MARSHALL       FAIR      36  19  51 NW17      30.12R
REDWOOD FALLS  FAIR      35  19  52 NW14G22   30.09R WCI  26
OLIVIA         FAIR      32  23  69 NW14G20   30.08R WCI  22
PIPESTONE      FAIR      36  21  55 NW9       30.09R
WINDOM         FAIR      39  25  56 NW10      30.08R
WORTHINGTON    FAIR      39  21  48 W13       30.11R
JACKSON        FAIR      41  23  48 W9        30.08S
TRACY          FAIR      37  23  57 NW14      30.10R
SLAYTON        FAIR      37  22  55 CALM      30.09R
$$
MNZ065>067-074>077-082>085-091>093-061900-
   South Central Minnesota

CITY           SKY/WX    TMP DP  RH WIND       PRES   REMARKS
MANKATO        FAIR      37  21  52 W15       30.07S
NEW ULM        FAIR      36  19  51 NW13G18   30.08R
ST JAMES       FAIR      39  21  48 NW12G18   30.10R
FAIRMONT       FAIR      41  21  45 W12       30.08R
GLENCOE        FAIR      35  24  65 W16       30.06R WCI  25
FARIBAULT      FAIR      34  19  55 SW10      30.07R WCI  26
OWATONNA       FAIR      34  19  55 SW12      30.06F WCI  25
WASECA         FAIR      34  21  60 SW12      30.08F WCI  25
ALBERT LEA     FAIR      34  21  60 SW9       30.07F WCI  26
$$
MNZ078>079-086>088-094>096-061900-
   Southeast Minnesota

CITY           SKY/WX    TMP DP  RH WIND       PRES   REMARKS
ROCHESTER      FAIR      24  16  71 SW13      30.07F WCI  12
6HR MIN TEMP:   8; 6HR MAX TEMP:  24;

RED WING       FAIR      30  14  51 W8        30.07S WCI  23
STANTON        FAIR      33  18  53 SW9       30.05S WCI  25
DODGE CENTER   FAIR      27  19  74 SW13      30.05F WCI  16
WINONA         PTSUNNY   28  16  59 SW5       30.12F WCI  23
AUSTIN         FAIR      27  18  69 SW12      30.08F WCI  16
PRESTON        FAIR      25  15  66 SW10      30.09F WCI  15
$$
ABBREVIATIONS USED IN REMARKS
   TC - TEMPERATURES IN CELSIUS
  WCI - WIND CHILL INDEX
   HX - HEAT INDEX
  VSB - VISIBILITY
$$



USA.gov is the U.S. government's official web portal to all federal, state and local government web resources and services.